Info for pilots

Image

Airfield Info:

EBUL
N51 08.7 - E003 28.6
ELEV 95' / 29m
RWY 07 / 25
799m * 45m (CIV) - 2980m (MIL)
Ursel Radio 135.130
Tel Aero Club Brugge : +32(0)9 374 25 75
Tel Vliegclub Ursel : +32(0)9 374 12 90

Operational Hours
FRI: 14h00LT - SS+30 MIN
SAT, SUN and HOL: TKOF and LDG: 10h00LT - SS+30 MIN
After 20h00LT to SS+30 MIN: only LDG allowed (PN)

Local Traffic Regulations
The use of the AD is subject to PPR from the OPR;
AD given in concession to the CIV club outside MIL ACT;
Solo training flights can only be performed after two reconnaissance flights with instructor. The solo training flight must be performed within six weeks after the first reconnaissance flight;
Jet aircraft operations not allowed.

Obstacles:
trees between 10M AGL and 22M AGL, caution when crosswind:
North of the RWY, 75M from CL, along the whole length of the RWY;
South of the RWY, 75M from CL, and at THR RWY 25 from THR RWY 07 to 140M east of THR RWY 07



Image

Image

Watch out!

Flight Procedures
RWY 07 and 25 left hand circuit, 1.200 FT QNH

Image

Taxi procedures:
RWY 07 (TKOF):
taxi on the north side of the RWY to the HLDG position of RWY 07

RWY 07 (LDG):
after landing roll out to the second intersection (THR RWY 25), turn left, turn left again, taxi via the TWY to the first intersection, turn left, cross the RWY (check for landing ACFT), taxi on the south side of the RWY to the AD reporting office

RWY 25 (TKOF):
taxi on the north side of the first intersection, turn left, next turn right, taxi via the TWY to the second intersection, turn right, taxi to the HLDG of RWY 25

RWY 25 (LDG):
after landing roll out to the end of the RWY, taxi on the south side of the RWY to the AD reporting office.





Image

Taxi & Circuit?

Image
Image
Image
Image

Current Metars - Auto refresh

EBOS - Oostende
2021/01/16 09:50 EBOS 160950Z 18010KT 4000 -SN BR BKN030 00/M03 Q1024 TEMPO 0800 SN BKN004


EBAW - Antwerpen
2021/01/16 09:50 EBAW 160950Z 19008KT 9999 FEW044 02/M05 Q1026 NOSIG


EBBR - Brussel
2021/01/16 09:50 EBBR 160950Z 20009KT CAVOK 01/M04 Q1026 NOSIG

Source : NOAA.GOV

Current TAFs - Auto refresh

EBOS - Oostende
2021/01/16 06:27 TAF EBOS 160510Z 1606/1712 18012KT 9999 SCT035 BECMG 1610/1612 BKN007 TEMPO 1610/1617 2500 -SN BKN004 PROB40 TEMPO 1611/1616 17015G25KT 0800 SN BKN002 PROB40 TEMPO 1617/1623 3000 -DZ BKN004 BECMG 1621/1623 30015G25KT SCT012 PROB40 TEMPO 1705/1712 3500 SHRA SHRAGS BKN012CB

EBAW - Antwerpen
2021/01/16 09:27 TAF TAF EBAW 160815Z 1609/1618 18008KT 9999 FEW030 BECMG 1612/1614 BKN007 TEMPO 1613/1618 2500 -SN BKN004 PROB40 TEMPO 1614/1618 0800 SN BKN002

EBBR - Brussel
2021/01/16 06:27 TAF TAF EBBR 160510Z 1606/1712 18008KT 9999 SCT035 BECMG 1613/1615 BKN007 TEMPO 1613/1622 2500 -SN BKN004 PROB40 TEMPO 1614/1619 0800 SN BKN002 TEMPO 1622/1706 1500 -DZ BR BKN004 BECMG 1701/1703 27010KT PROB30 TEMPO 1706/1712 4000 SHRA SHRASN BKN012CB

Source : NOAA.GOV
Image

Webcam

Direction runway 07 :